Regional Weather Roundup
Issued by NWS Sterling, VA

Home | Current Version | Previous Version | Graphics & Text | Print | Product List | Glossary On
Versions: 1 2 3 4 5 6 7 8 9 10 11 12 13 14 15 16 17 18 19 20 21 22 23 24 25 26 27 28 29 30 31 32 33 34 35 36 37 38 39 40 41 42 43 44 45 46 47 48 49 50
000
ASUS41 KLWX 181711
RWRLWX

REGIONAL WEATHER ROUNDUP
NATIONAL WEATHER SERVICE BALTIMORE MD/WASHINGTON DC
100 PM EDT FRI AUG 18 2017

Note: "FAIR" indicates few or no clouds below 12,000 feet
with no significant weather and/or obstructions to visibility.
 TC=TEMPERATURE CELSIUS

 * =Non NWS site. Station does not report precipitation (e.g. rain,
    snow, etc.), thunder, or fog.

DCZ001-MDZ009-015-VAZ040>042-051-053>054-181800-
WASHINGTON METRO

CITY           SKY/WX    TMP DP  RH WIND       PRES   REMARKS
WASHINGTON NAT MOSUNNY   87  79  76 S10       29.84F HX 101
DULLES         PTSUNNY   89  76  65 SW10      29.83F HX 100
ANDREWS AFB    SUNNY     87  76  70 S6        29.84F HX  96
FT BELVOIR     SUNNY     87  76  70 SE10      29.83F HX  98
QUANTICO       MOSUNNY   86  80  82 S10       29.84F HX 101
COLLEGE PARK*  SUNNY     86  74  68 CALM      29.83F HX  94
LEESBURG*      SUNNY     91  77  62 SW10      29.84F HX 105
MANASSAS*      SUNNY     90  78  68 S9        29.83F HX 104
GAITHERSBURG*  MOSUNNY   91  76  61 W5        29.86F HX 103

$$

MDZ006>007-011-014-181800-
BALTIMORE METRO

CITY           SKY/WX    TMP DP  RH WIND       PRES   REMARKS
BWI AIRPORT    MOSUNNY   87  78  74 VRB6      29.83F HX 100
MD SCIENCE CTR   N/A     89  77  67 MISG      29.84F HX 101
MARTIN STATE   PTSUNNY   84  81  89 SE8       29.85F HX  98
ANNAPOLIS      PTSUNNY   85  81  88 SE13      29.83F HX 100
FORT MEADE*      N/A     86  75  70 SW3       29.86F HX  95

$$

MDZ012-015-019>023-181800-
MARYLAND EASTERN SHORE

CITY           SKY/WX    TMP DP  RH WIND       PRES   REMARKS
OCEAN CITY     MOSUNNY   83  79  88 S10G18    29.88F HX  94
SALISBURY      PTSUNNY   88  80  77 S13       29.86F HX 104
BAY BRIDGE AP* PTSUNNY   86  77  74 S9        29.85F HX  97
CAMBRIDGE*     PTSUNNY   84  79  84 S9G16     29.86F HX  96
EASTON*        MOSUNNY   88  77  70 SW7       29.89F HX 100

$$

MDZ017>025-181800-
SOUTHERN MARYLAND

CITY           SKY/WX    TMP DP  RH WIND       PRES   REMARKS
PATUXENT RIVER PTSUNNY   86  80  82 S9        29.85F HX 101
ST INIGOES     SUNNY     87  80  79 S10       29.85F HX 103
LEONARDTOWN*   PTSUNNY   86  77  74 S8        29.88S HX  97

$$

MDZ003>005-181800-
NORTH CENTRAL MARYLAND

CITY           SKY/WX    TMP DP  RH WIND       PRES   REMARKS
FREDERICK*     MOSUNNY   90  73  58 SW10      29.85F HX  98
HAGERSTOWN APT CLOUDY    90  73  57 S12       29.83F HX  98
WESTMINSTER*   MOSUNNY   90  75  62 SW8       29.84F HX 100

$$

MDZ501>502-181800-
WESTERN MARYLAND

CITY           SKY/WX    TMP DP  RH WIND       PRES   REMARKS
OAKLAND*       CLOUDY    68  68 100 SW7       29.94F
CUMBERLAND*    CLOUDY    82  75  78 SE3       29.87F

$$

VAZ025>031-181800-
SHENANDOAH VALLEY

CITY           SKY/WX    TMP DP  RH WIND       PRES   REMARKS
WINCHESTER*    MOSUNNY   88  72  58 S8        29.84F HX  94
FRONT ROYAL*   PTSUNNY   88  72  58 W5        29.84F HX  94
LURAY*         MOSUNNY   90  72  55 S7        29.86F HX  96
NEW MARKET*    PTSUNNY   88  71  57 S5        29.84F HX  94
STAUNTON*      MOSUNNY   87  70  56 SW8G20    29.90F HX  92
WAYNESBORO*    MOSUNNY   87  72  59 SW12      29.91F HX  94

$$

WVZ021-048>050-054>055-181800-
EASTERN WEST VIRGINIA PANHANDLE

CITY           SKY/WX    TMP DP  RH WIND       PRES   REMARKS
MARTINSBURG    MOSUNNY   89  73  59 S12       29.82F HX  97
PETERSBURG*    MOSUNNY   88  75  64 NW5       29.86F HX  98

$$

VAZ036>039-050-181800-
CENTRAL FOOTHILLS

CITY           SKY/WX    TMP DP  RH WIND       PRES   REMARKS
CHARLOTTESVILL MOSUNNY   92  74  55 VRB3      29.85F HX 101
CULPEPER*      MOSUNNY   91  75  59 SW9G17    29.84F HX 102
ORANGE*        MOSUNNY   91  73  55 SW7       29.85F HX 100
GORDONSVILLE*  MOSUNNY   91  76  60 SW9       29.84F HX 102
WARRENTON*     SUNNY     92  71  50 S7        29.83F HX  99

$$

VAZ055>057-181800-
NORTH AND CENTRAL PIEDMONT

CITY           SKY/WX    TMP DP  RH WIND       PRES   REMARKS
FREDERICKSBRG* SUNNY     91  76  62 S7        29.83F HX 103
STAFFORD*      SUNNY     90  78  68 S3        29.88F HX 104

$$

NCZ024-NYZ072-PAZ021-071-VAZ022-071-181800-
OTHER REGIONAL OBSERVATIONS

CITY           SKY/WX    TMP DP  RH WIND       PRES   REMARKS
NEW YORK CITY  CLOUDY    79  77  94 MISG      29.88F FOG
PHILADELPHIA   CLOUDY    81  76  84 SW7       29.85F
PITTSBURGH     MOSUNNY   81  70  69 SW10      29.84F
ROANOKE        PTSUNNY   89  69  51 SW13      29.92F HX  93
RICHMOND       MOSUNNY   88  77  69 SW9       29.87F HX 100
RALEIGH        MOSUNNY   94  76  55 SW10      29.91F HX 106

$$

ANZ530>537-181800-
MARINE OBSERVATIONS

STATION/POSITION TIME  TEMP    WIND        PRES
                       AIR SEA DIR/SP/G
                 (UTC) (F)     (DEG/KT/KT) (MB)
THOMAS PT LIGHT  1700   81 80  170/ 11/ 13   N/A
BALT KEY BRIDGE  1648   83     120/  5/  5 1010.2F
COVE POINT       1648   84     200/ 10/ 12 1011.6F
LEWISETTA        1648   86 83  240/  6/  7 1011.0F
SOLOMONS ISLAND  1648   84 82  200/  8/ 10   N/A
PINEY POINT      1648          260/  2/  3   N/A

$$




USA.gov is the U.S. government's official web portal to all federal, state and local government web resources and services.